When you browse on this site, cookies collect data to enhance your experience and personalize the content and advertising you see.
Visit our Privacy Policy to learn more. By continuing to use the site, you agree to this use of cookies and data.
  • In Denmark
  • List of Countries
  • For 7 days
  • Water Temperature
  • Weather Map
  • Weather Widgets
  • user-avatar
    Login

    Hourly Weather Batina

    Today, 10 April, Friday

    Time Temperature Precipitation Wind Pressure Humidity
    00:00 +9°C° 0 mm 0 mps 672 mmHg 84%
    01:00 +10°C° 0 mm 1 mps 671 mmHg 84%
    02:00 +10°C° 0 mm 1 mps 671 mmHg 84%
    03:00 +10°C° 0 mm 1 mps 670 mmHg 84%
    04:00 +11°C° 0 mm 1 mps 671 mmHg 83%
    05:00 +11°C° 0 mm 1 mps 671 mmHg 82%
    06:00 +12°C° 0 mm 2 mps 672 mmHg 79%
    07:00 +12°C° 0.1 mm 2 mps 672 mmHg 78%
    08:00 +12°C° 0.1 mm 2 mps 672 mmHg 76%
    09:00 +13°C° 0.1 mm 2 mps 672 mmHg 75%
    10:00 +12°C° 0.6 mm 2 mps 672 mmHg 78%
    11:00 +12°C° 0.6 mm 2 mps 672 mmHg 81%
    12:00 +12°C° 0.6 mm 2 mps 672 mmHg 84%
    13:00 +12°C° 0.5 mm 2 mps 671 mmHg 84%
    14:00 +11°C° 0.5 mm 3 mps 671 mmHg 83%
    15:00 +11°C° 0.5 mm 3 mps 671 mmHg 82%
    16:00 +12°C° 0.6 mm 2 mps 671 mmHg 84%
    17:00 +10°C° 0.6 mm 2 mps 671 mmHg 86%
    18:00 +10°C° 0.6 mm 2 mps 671 mmHg 88%
    19:00 +11°C° 0.2 mm 1 mps 671 mmHg 88%
    20:00 +11°C° 0.2 mm 1 mps 671 mmHg 89%
    21:00 +11°C° 0.2 mm 1 mps 672 mmHg 89%
    22:00 +11°C° 0.1 mm 1 mps 672 mmHg 89%
    23:00 +11°C° 0.1 mm 1 mps 672 mmHg 90%

    Tomorrow, 11 April, Saturday

    Time Temperature Precipitation Wind Pressure Humidity
    00:00 +11°C° 0.1 mm 1 mps 671 mmHg 90%
    01:00 +10°C° 0 mm 1 mps 671 mmHg 90%
    02:00 +9°C° 0 mm 0 mps 671 mmHg 91%
    03:00 +9°C° 0 mm 0 mps 671 mmHg 91%
    04:00 +10°C° 0.1 mm 1 mps 671 mmHg 91%
    05:00 +10°C° 0.1 mm 1 mps 672 mmHg 91%
    06:00 +11°C° 0.1 mm 1 mps 672 mmHg 91%
    07:00 +12°C° 0.1 mm 1 mps 672 mmHg 85%
    08:00 +13°C° 0.1 mm 1 mps 673 mmHg 79%
    09:00 +14°C° 0.1 mm 1 mps 673 mmHg 73%
    10:00 +14°C° 0.2 mm 2 mps 673 mmHg 70%
    11:00 +15°C° 0.2 mm 2 mps 673 mmHg 67%
    12:00 +16°C° 0.2 mm 2 mps 673 mmHg 65%
    13:00 +16°C° 0.4 mm 2 mps 673 mmHg 66%
    14:00 +16°C° 0.4 mm 2 mps 672 mmHg 67%
    15:00 +15°C° 0.4 mm 2 mps 672 mmHg 69%
    16:00 +15°C° 0.5 mm 2 mps 672 mmHg 73%
    17:00 +14°C° 0.5 mm 2 mps 672 mmHg 78%
    18:00 +14°C° 0.5 mm 2 mps 671 mmHg 82%
    19:00 +13°C° 0.3 mm 2 mps 672 mmHg 84%
    20:00 +13°C° 0.3 mm 1 mps 672 mmHg 86%
    21:00 +13°C° 0.3 mm 1 mps 673 mmHg 88%
    22:00 +13°C° 0.1 mm 1 mps 672 mmHg 88%
    23:00 +12°C° 0.1 mm 1 mps 672 mmHg 89%

    Day after tomorrow, 12 April, Sunday

    Time Temperature Precipitation Wind Pressure Humidity
    00:00 +12°C° 0.1 mm 1 mps 672 mmHg 89%
    01:00 +12°C° 0 mm 1 mps 672 mmHg 90%
    02:00 +12°C° 0 mm 1 mps 672 mmHg 90%
    03:00 +11°C° 0 mm 1 mps 671 mmHg 91%
    04:00 +11°C° 0 mm 1 mps 672 mmHg 89%
    05:00 +12°C° 0 mm 1 mps 672 mmHg 88%
    06:00 +12°C° 0 mm 1 mps 672 mmHg 87%
    07:00 +13°C° 0 mm 2 mps 673 mmHg 81%
    08:00 +14°C° 0 mm 2 mps 673 mmHg 74%
    09:00 +15°C° 0 mm 2 mps 673 mmHg 67%
    10:00 +16°C° 0 mm 3 mps 673 mmHg 64%
    11:00 +15°C° 0 mm 4 mps 673 mmHg 61%
    12:00 +17°C° 0 mm 4 mps 673 mmHg 59%
    13:00 +17°C° 0 mm 4 mps 672 mmHg 58%
    14:00 +17°C° 0 mm 3 mps 672 mmHg 57%
    15:00 +18°C° 0 mm 3 mps 671 mmHg 56%
    16:00 +17°C° 0 mm 3 mps 671 mmHg 59%
    17:00 +16°C° 0 mm 2 mps 670 mmHg 63%
    18:00 +15°C° 0 mm 2 mps 670 mmHg 66%
    19:00 +15°C° 0 mm 2 mps 670 mmHg 69%
    20:00 +14°C° 0 mm 2 mps 670 mmHg 71%
    21:00 +13°C° 0 mm 2 mps 670 mmHg 74%
    22:00 +13°C° 0 mm 2 mps 670 mmHg 74%
    23:00 +12°C° 0 mm 2 mps 669 mmHg 75%

    13 April, Monday

    Time Temperature Precipitation Wind Pressure Humidity
    00:00 +12°C° 0 mm 2 mps 669 mmHg 75%
    01:00 +12°C° 0 mm 2 mps 669 mmHg 75%
    02:00 +12°C° 0 mm 2 mps 668 mmHg 75%
    03:00 +11°C° 0 mm 1 mps 668 mmHg 74%
    04:00 +12°C° 0 mm 1 mps 668 mmHg 73%
    05:00 +12°C° 0 mm 1 mps 668 mmHg 72%
    06:00 +12°C° 0 mm 2 mps 668 mmHg 70%
    07:00 +15°C° 0 mm 2 mps 668 mmHg 61%
    08:00 +17°C° 0 mm 2 mps 669 mmHg 53%
    09:00 +19°C° 0 mm 2 mps 670 mmHg 44%
    10:00 +20°C° 0 mm 4 mps 669 mmHg 39%
    11:00 +22°C° 0 mm 6 mps 669 mmHg 35%
    12:00 +24°C° 0 mm 8 mps 669 mmHg 30%
    13:00 +24°C° 0 mm 10 mps 668 mmHg 30%
    14:00 +23°C° 0 mm 11 mps 668 mmHg 29%
    15:00 +23°C° 0 mm 12 mps 667 mmHg 29%
    16:00 +21°C° 0 mm 9 mps 666 mmHg 35%
    17:00 +18°C° 0 mm 7 mps 666 mmHg 41%
    18:00 +18°C° 0 mm 4 mps 665 mmHg 47%
    19:00 +17°C° 0 mm 3 mps 665 mmHg 50%
    20:00 +16°C° 0 mm 3 mps 665 mmHg 52%
    21:00 +16°C° 0 mm 2 mps 665 mmHg 54%
    22:00 +16°C° 0 mm 3 mps 665 mmHg 52%
    23:00 +16°C° 0 mm 3 mps 665 mmHg 49%

    14 April, Tuesday

    Time Temperature Precipitation Wind Pressure Humidity
    00:00 +16°C° 0 mm 3 mps 664 mmHg 47%
    01:00 +17°C° 0 mm 3 mps 664 mmHg 45%
    02:00 +17°C° 0 mm 4 mps 664 mmHg 43%
    03:00 +17°C° 0 mm 4 mps 664 mmHg 41%
    04:00 +17°C° 0 mm 3 mps 664 mmHg 42%
    05:00 +17°C° 0 mm 3 mps 665 mmHg 44%
    06:00 +17°C° 0 mm 2 mps 665 mmHg 45%
    07:00 +19°C° 0 mm 3 mps 666 mmHg 39%
    08:00 +22°C° 0 mm 4 mps 666 mmHg 32%
    09:00 +25°C° 0 mm 5 mps 667 mmHg 26%
    10:00 +26°C° 0 mm 6 mps 667 mmHg 24%
    11:00 +26°C° 0 mm 7 mps 667 mmHg 22%
    12:00 +27°C° 0 mm 9 mps 668 mmHg 20%
    13:00 +27°C° 0 mm 9 mps 667 mmHg 21%
    14:00 +26°C° 0 mm 10 mps 667 mmHg 23%
    15:00 +24°C° 0 mm 11 mps 667 mmHg 24%
    16:00 +23°C° 0 mm 8 mps 666 mmHg 28%
    17:00 +22°C° 0 mm 6 mps 666 mmHg 33%
    18:00 +20°C° 0 mm 3 mps 666 mmHg 37%
    19:00 +19°C° 0 mm 3 mps 666 mmHg 40%
    20:00 +18°C° 0 mm 3 mps 666 mmHg 43%
    21:00 +18°C° 0 mm 3 mps 666 mmHg 46%
    22:00 +17°C° 0 mm 3 mps 666 mmHg 48%
    23:00 +17°C° 0 mm 3 mps 666 mmHg 50%

    15 April, Wednesday

    Time Temperature Precipitation Wind Pressure Humidity
    00:00 +16°C° 0 mm 3 mps 666 mmHg 52%
    01:00 +16°C° 0 mm 3 mps 666 mmHg 48%
    02:00 +16°C° 0 mm 3 mps 666 mmHg 45%
    03:00 +16°C° 0 mm 3 mps 665 mmHg 42%
    04:00 +16°C° 0 mm 2 mps 666 mmHg 41%
    05:00 +16°C° 0 mm 2 mps 666 mmHg 40%
    06:00 +17°C° 0 mm 2 mps 666 mmHg 39%
    07:00 +19°C° 0 mm 5 mps 667 mmHg 32%
    08:00 +22°C° 0 mm 7 mps 668 mmHg 25%
    09:00 +24°C° 0 mm 10 mps 669 mmHg 18%
    10:00 +26°C° 0 mm 11 mps 669 mmHg 18%
    11:00 +26°C° 0 mm 12 mps 669 mmHg 19%
    12:00 +27°C° 0 mm 12 mps 669 mmHg 19%
    13:00 +27°C° 0 mm 11 mps 669 mmHg 18%
    14:00 +27°C° 0 mm 10 mps 669 mmHg 18%
    15:00 +27°C° 0 mm 9 mps 669 mmHg 18%
    16:00 +23°C° 0 mm 7 mps 669 mmHg 27%
    17:00 +21°C° 0 mm 5 mps 669 mmHg 36%
    18:00 +19°C° 0 mm 3 mps 669 mmHg 45%
    19:00 +18°C° 0 mm 3 mps 669 mmHg 55%
    20:00 +16°C° 0 mm 3 mps 669 mmHg 64%
    21:00 +14°C° 0 mm 3 mps 670 mmHg 74%
    22:00 +15°C° 0 mm 2 mps 670 mmHg 72%
    23:00 +15°C° 0 mm 2 mps 670 mmHg 70%
    Show more